RH
68 64 64 67 65 63 66 68 73 74 73 76 78 85 92 91 92 89 92 90 84 89 90 89 93 90 94 94 94 95 96 97 94 98 95 93 94 94 93 91 87 88 88
100 83 79 89 97 76 85 78 82 85 78 75 74 75 85 94 94 96 95 95 92 91 94 90 93 85 92 93 94 95 94 94 98 97 95 96 96 95 96 94 90 85 83
80 96 90 96 100 100 100 100 100 95 94 90 90 87 88 91 90 95 98 96 95 94 96 96 94 95 95 96 94 95 94 91 95 94 99 98 96 94 93 91 94 90 72
61 50 97 99 52 61 97 81 93 78 91 88 87 87 85 84 88 89 90 92 91 95 96 94 96 96 94 95 95 95 94 94 94 95 95 95 98 99 94 96 96 96 95
58 46 45 44 49 40 44 48 49 43 48 81 77 83 82 81 80 80 79 90 92 91 92 93 92 85 89 89 90 93 92 93 93 93 95 93 94 94 97 98 95 99 100
32 34 39 37 37 42 39 41 40 39 38 39 39 45 74 69 54 54 60 77 87 88 90 88 85 85 86 87 87 88 90 92 91 91 91 91 94 93 94 96 96 97 97
32 30 32 34 36 38 35 36 39 42 41 42 39 38 46 56 55 49 50 49 56 69 81 82 75 68 58 74 86 86 88 89 92 81 84 89 90 92 91 89 89 89 93
35 32 32 34 36 38 38 39 40 41 42 42 45 42 41 52 67 54 51 40 45 54 65 62 70 71 57 47 50 68 72 75 79 68 74 75 78 82 80 68 66 67 80
46 43 41 40 44 44 45 47 43 44 46 49 48 53 50 50 69 65 46 41 43 53 57 66 66 69 72 57 44 51 61 71 62 70 72 72 72 70 71 63 73 73 77
59 56 48 52 56 63 62 57 50 52 53 55 59 62 65 65 66 70 55 50 62 60 64 64 69 69 70 70 58 58 68 75 75 75 81 76 74 77 73 83 82 73 77
52 54 53 59 66 59 59 58 69 69 65 80 82 79 80 76 74 66 68 69 77 74 73 76 78 67 68 69 70 74 80 81 78 83 82 82 81 82 81 82 85 87 83
47 49 52 51 48 65 71 59 60 60 73 79 80 79 79 82 66 66 64 65 69 77 81 79 78 63 65 66 72 67 68 74 83 84 84 85 86 86 84 80 81 79 79
42 45 46 48 50 49 53 65 52 53 56 58 60 66 67 67 69 61 61 61 62 75 80 70 62 62 61 68 63 66 72 82 83 84 84 86 85 84 80 80 77 75 75
38 38 37 37 39 39 39 45 55 63 61 58 63 68 68 66 68 66 67 68 63 69 70 70 65 64 60 66 71 74 80 77 80 80 80 83 79 78 79 77 78 77 75
33 33 34 36 35 38 44 53 53 70 66 68 81 74 78 79 75 66 67 73 74 72 74 68 71 72 71 72 72 73 73 72 75 79 79 76 75 72 72 70 70 68 72
32 32 36 37 36 33 36 49 62 62 60 60 59 70 78 60 57 59 61 59 60 60 67 72 76 77 73 67 67 67 66 65 65 64 66 66 68 67 66 62 59 65 66
31 34 36 40 38 43 45 49 64 66 57 58 56 58 59 59 59 60 62 69 53 54 64 66 72 73 65 53 52 57 63 62 65 60 62 65 66 63 67 62 61 61 63
59 71 57 67 69 67 65 68 69 70 74 80 66 60 60 60 63 64 67 62 58 53 53 58 63 61 52 46 46 53 57 60 59 58 63 68 72 68 68 63 62 72 63
75 70 76 76 76 72 69 68 66 66 66 65 61 75 78 56 56 77 82 68 70 62 54 51 56 52 52 53 70 75 74 75 70 71 67 67 76 69 67 64 66 71 70
58 66 63 66 70 66 67 66 63 64 64 65 65 72 65 59 71 73 71 74 72 62 61 56 54 55 64 66 77 81 88 81 78 70 74 76 81 71 72 69 72 74 63
68 70 63 63 65 65 66 65 62 63 64 65 68 92 84 67 69 70 63 68 70 66 71 66 68 71 68 68 66 77 79 88 83 77 71 69 78 74 66 67 68 64 63
64 65 66 66 64 66 66 62 64 66 65 65 68 75 75 72 69 64 62 73 78 69 67 68 70 67 63 68 76 78 77 82 80 82 80 77 69 69 69 69 70 73 68
62 64 60 58 61 66 70 64 69 72 70 71 70 68 72 73 73 67 71 77 72 73 71 69 75 70 66 74 72 73 77 83 86 79 82 84 81 78 74 74 71 73 74
62 69 61 65 73 64 75 78 74 70 71 73 78 76 72 72 74 73 73 77 73 75 75 75 71 69 70 72 72 71 64 86 76 72 77 83 82 80 75 70 68 77 76
71 74 74 71 73 82 80 78 79 80 77 78 78 74 67 71 67 72 74 73 72 75 72 72 73 70 68 71 71 70 87 77 76 74 81 81 83 81 81 74 78 69 74
67 68 74 76 77 80 84 85 81 80 77 75 74 74 74 72 70 75 74 72 73 73 73 72 70 69 70 68 66 84 75 74 76 79 84 87 86 82 82 83 71 75 73
Wind_Speed
9 10 11 12 12 12 14 15 15 15 16 17 18 18 17 17 17 15 14 17 16 16 16 17 16 13 11 9 9 9 8 6 4 5 6 7 9 11 12 10 9 11 12
5 8 8 7 7 12 11 12 13 14 15 16 16 17 17 16 17 17 17 17 17 20 18 19 18 11 15 14 10 12 11 12 4 14 7 9 9 10 10 13 9 8 10
5 6 7 8 4 4 6 6 7 10 12 15 15 17 18 17 18 18 13 15 17 19 19 21 18 20 16 13 10 11 10 12 11 7 7 6 9 8 11 7 8 9 10
5 6 5 4 9 6 2 7 4 9 9 11 15 16 17 17 18 15 16 16 18 18 18 18 20 20 18 14 15 15 14 13 12 10 9 8 5 7 9 7 6 9 11
5 7 8 8 9 9 10 11 12 13 13 10 12 14 15 14 12 15 17 17 18 18 18 17 20 25 33 31 15 16 15 14 10 9 12 9 10 8 11 6 4 3 6
7 7 7 9 9 9 11 12 13 14 15 15 16 17 14 12 24 23 19 15 17 18 17 17 17 22 24 30 28 35 27 15 16 9 12 8 15 9 8 7 8 8 5
7 7 8 8 9 9 11 12 12 14 14 16 16 17 18 17 24 22 22 15 18 18 18 17 15 15 16 14 21 24 28 30 21 11 13 14 13 13 10 10 10 7 4
7 8 8 8 9 10 11 12 13 12 13 14 15 16 17 17 26 22 18 15 17 19 20 18 18 20 21 16 15 17 18 17 16 12 15 13 14 13 12 8 8 5 3
7 8 8 8 9 10 11 11 11 11 12 13 14 16 17 18 28 26 16 14 15 17 15 19 18 19 28 26 17 17 16 14 14 19 18 19 20 21 17 8 9 7 6
6 6 7 8 8 9 9 10 9 9 10 9 11 13 19 17 27 29 21 12 13 11 13 16 26 22 26 26 16 14 13 12 11 11 11 13 13 12 17 12 9 9 8
7 6 7 7 7 7 7 6 6 8 8 7 7 9 10 13 15 24 25 13 11 10 10 10 11 21 23 23 20 14 12 8 9 8 8 9 9 9 8 9 9 7 7
7 6 6 5 5 5 5 5 6 5 5 5 6 7 8 9 15 17 20 19 16 10 10 8 9 16 18 22 16 22 20 13 9 9 9 9 9 9 8 8 8 7 5
7 6 6 5 5 4 5 4 5 5 6 6 6 7 7 8 9 17 16 16 14 8 6 9 14 14 15 12 18 19 15 10 10 9 10 10 9 9 10 11 10 11 9
7 6 5 4 4 4 3 5 6 6 5 5 6 7 7 8 9 9 10 10 13 10 9 7 8 9 11 10 10 10 9 9 9 9 9 8 8 8 9 9 8 8 7
6 5 5 4 3 5 7 7 5 7 7 6 7 5 7 7 8 11 11 8 8 9 10 7 7 7 8 8 8 8 9 9 9 9 9 9 9 9 9 9 8 8 9
5 4 3 3 2 1 4 7 9 8 7 8 9 9 5 8 10 13 14 11 13 15 7 7 8 8 9 9 9 9 9 10 10 9 9 9 10 10 11 10 10 10 10
5 4 4 2 3 2 1 1 4 5 5 4 4 6 7 7 8 10 13 15 5 12 7 8 8 8 9 8 8 9 9 9 9 9 9 10 10 10 11 10 10 10 11
4 6 2 2 1 1 1 2 2 3 1 3 6 4 3 3 6 7 12 15 8 9 7 8 9 9 8 8 8 8 8 8 8 9 9 9 9 10 11 11 11 12 12
5 5 4 3 3 2 2 2 1 2 3 3 3 6 8 5 10 9 11 7 8 9 9 9 9 9 10 10 9 7 7 7 7 8 8 9 9 10 11 11 11 14 14
5 5 3 4 4 4 2 2 2 3 4 4 4 4 4 8 8 7 7 7 7 8 9 9 9 9 9 10 9 9 8 8 7 7 8 8 7 8 10 11 11 12 12
4 6 4 4 3 3 2 3 3 3 4 4 5 6 6 6 7 7 8 8 8 8 9 9 9 9 9 9 10 10 11 10 9 8 8 8 7 9 9 10 10 11 12
4 4 5 4 3 3 3 3 3 4 4 5 5 2 1 5 6 8 8 8 8 8 8 9 9 9 9 10 10 10 11 11 11 11 11 9 8 9 9 10 11 10 11
4 3 3 3 3 1 3 4 3 3 4 6 6 6 6 6 7 8 8 7 7 8 8 8 9 8 9 9 10 10 11 11 11 11 12 12 11 10 9 10 10 10 10
4 3 3 1 1 3 3 3 3 3 3 5 5 6 7 7 8 8 8 7 7 8 8 8 9 11 10 10 9 10 11 11 10 11 15 13 13 14 9 10 11 12 11
4 3 2 3 2 1 2 3 3 3 4 5 6 6 7 7 7 7 7 7 7 7 9 9 8 10 12 14 14 15 12 15 13 15 12 15 16 17 11 9 10 11 13
4 3 2 1 1 1 2 3 3 4 5 5 5 6 6 7 7 7 7 7 7 9 11 8 10 13 14 12 13 13 14 15 14 17 13 14 12 10 8 8 12 10 12
Wind_Direction
21 32 40 27 21 21 18 15 11 17 15 17 14 13 12 12 11 15 15 23 20 26 31 29 28 12 35 24 19 11 4 353 246 74 62 19 46 52 50 43 36 69 65
42 39 31 47 32 29 14 13 15 20 20 23 25 21 18 15 15 15 21 21 22 31 29 31 31 21 35 34 25 33 17 7 309 107 33 42 35 49 66 45 27 50 63
93 70 37 343 106 30 358 335 20 17 32 26 23 26 18 14 24 16 11 27 27 30 30 32 27 35 28 33 35 48 30 35 30 72 95 65 45 28 56 44 44 46 33
50 85 102 8 33 53 239 10 40 44 29 44 35 27 24 18 27 19 18 25 30 33 31 34 34 39 35 31 32 36 42 45 51 58 39 52 47 17 55 25 32 65 24
79 47 52 58 37 35 36 31 37 31 39 40 54 43 27 26 31 22 30 28 27 32 33 29 32 41 45 46 37 28 46 50 32 38 54 20 39 36 43 9 15 36 60
69 72 54 58 51 40 39 42 33 36 32 36 40 43 38 26 24 40 39 35 36 34 31 31 25 30 41 45 45 47 46 46 49 31 55 11 38 23 39 29 23 18 24
81 69 60 55 52 47 48 47 44 39 37 32 35 39 42 28 22 29 46 40 43 35 33 29 31 25 29 55 42 50 48 50 47 36 54 22 33 10 21 27 32 25 39
76 66 59 54 55 48 47 50 49 42 39 39 33 32 42 31 21 21 34 49 48 45 33 32 32 26 22 29 48 47 43 49 45 38 53 43 39 16 9 13 27 26 104
78 71 58 53 50 49 51 45 44 50 44 40 36 32 30 36 29 18 29 42 45 47 42 36 32 30 27 28 37 39 42 35 43 46 46 44 38 31 25 18 27 20 13
93 84 78 73 65 58 49 39 42 49 45 49 41 39 29 29 25 28 23 27 38 36 39 37 33 34 34 35 38 39 39 34 33 40 34 40 36 24 20 21 13 24 6
129 109 99 88 63 65 56 61 66 48 46 42 58 54 56 38 34 30 31 28 24 28 33 30 22 31 36 39 41 37 29 19 36 42 45 37 30 13 13 16 13 17 8
136 128 111 90 92 78 43 69 45 42 60 51 43 54 53 56 41 40 35 34 19 32 27 22 26 26 32 32 33 32 29 23 25 29 29 26 16 7 3 12 356 8 344
153 141 128 119 99 65 68 38 34 41 33 27 32 35 43 39 32 19 33 33 25 18 29 18 12 21 25 36 34 32 29 19 21 21 21 17 8 357 0 355 351 352 338
162 152 146 131 110 112 97 64 39 17 24 32 25 19 31 34 23 17 11 14 11 9 6 27 16 12 29 26 30 29 30 27 18 18 14 11 5 1 6 348 350 345 336
169 153 147 145 170 101 56 19 80 55 27 14 8 42 15 31 25 13 9 4 359 343 313 15 17 15 18 18 20 22 26 15 14 12 5 7 1 359 3 345 349 347 343
180 183 143 160 155 156 147 124 71 71 66 50 37 27 66 42 10 4 356 345 330 333 339 7 10 6 7 9 11 11 16 15 8 3 357 8 360 355 352 351 351 348 346
197 159 146 221 186 159 186 249 160 147 139 120 77 43 31 10 355 350 343 328 301 321 0 359 360 355 351 355 358 3 4 5 359 359 354 3 355 347 346 347 346 346 340
83 46 137 90 105 128 57 42 359 348 280 171 186 202 181 285 305 313 320 323 357 354 356 349 348 343 340 341 348 350 345 340 351 348 347 354 353 345 345 344 344 344 339
164 168 176 166 173 148 175 186 248 271 309 306 304 183 206 328 315 256 279 352 348 344 349 343 342 341 339 339 336 330 326 323 331 333 340 342 345 346 339 337 336 336 329
189 103 213 177 155 208 203 241 245 270 288 303 316 337 351 349 334 338 347 348 347 344 342 338 339 341 336 332 329 326 316 314 321 324 329 325 336 339 328 330 331 330 326
171 160 224 222 211 214 244 258 282 285 297 316 329 79 73 336 319 334 338 343 350 343 335 335 331 330 329 332 334 334 329 326 321 314 311 314 327 320 324 324 327 321 322
195 179 191 229 225 223 263 278 291 302 308 313 330 115 36 314 335 333 331 346 345 334 338 334 332 329 330 334 339 333 323 323 325 330 325 318 315 314 318 322 320 326 320
198 201 208 216 245 73 252 252 276 295 322 339 341 336 335 330 333 328 334 338 338 341 336 333 326 329 327 337 334 324 320 322 335 338 328 324 316 306 308 309 318 313 322
188 184 217 197 263 286 282 296 323 346 336 321 332 328 326 332 331 330 327 345 338 330 335 329 323 319 332 330 324 330 311 338 337 323 314 311 302 298 290 304 306 312 316
157 163 178 222 249 274 325 304 341 341 334 328 327 327 330 332 325 328 339 335 334 328 330 318 315 327 323 328 314 305 350 335 322 308 300 302 291 283 282 292 305 315 313
172 183 198 232 294 340 350 353 342 337 325 329 331 328 332 328 324 337 331 324 344 331 305 315 321 320 319 312 310 347 332 316 322 322 309 299 295 289 290 307 311 307 310